Lid_Strength_Index
-0 -0 -0 -0 -1 -1 -1 -1 -1 -1 -1 0 0 0 0 -0 -0 -0 -0 0 1 1 1 2 2 0 1 1 1 0 1 1 3 1 0 -0 -0 -0 -0 -1 -1 -1 -1
-0 0 -0 -0 -0 -1 -0 -0 -0 -0 0 1 1 1 0 0 0 1 2 2 2 3 2 2 2 2 1 1 2 1 1 0 2 3 1 1 0 -1 -1 -0 -0 -1 -1
1 0 0 0 -0 -0 0 0 1 1 1 0 0 1 1 2 2 2 3 3 3 3 3 3 2 2 3 3 2 3 3 3 3 4 4 3 2 1 -0 -0 -0 -0 -1
1 1 1 1 1 1 1 2 1 1 1 1 1 2 3 3 3 4 4 4 4 3 3 3 3 4 5 5 5 5 4 4 4 4 4 4 4 2 2 3 1 -0 0
2 2 2 2 2 2 3 2 3 2 2 2 3 4 4 4 5 6 5 5 4 4 3 4 4 4 5 5 6 5 5 5 5 5 5 5 4 3 3 3 4 3 0
3 3 3 3 4 4 4 4 4 4 3 4 5 5 5 5 8 9 8 6 6 6 6 5 5 5 5 5 5 6 6 7 6 6 5 6 5 5 4 5 5 5 5
4 5 5 5 5 5 5 5 5 5 5 5 5 5 5 5 9 9 10 8 7 7 8 8 7 5 6 6 6 6 6 6 6 6 7 6 7 6 5 6 6 6 6
6 6 6 6 6 6 6 6 5 5 6 6 6 5 6 6 10 11 10 7 7 7 7 6 7 6 6 7 7 7 6 6 5 5 5 6 6 5 5 5 5 5 6
8 8 8 8 8 7 7 6 6 6 6 6 6 5 6 7 10 10 10 8 8 7 7 7 6 7 8 9 8 8 7 6 5 6 7 7 8 8 7 7 7 7 8
9 9 8 8 8 7 7 7 6 6 7 7 7 6 7 8 10 11 10 9 9 9 7 6 7 7 9 9 8 8 8 7 7 7 7 6 7 6 7 6 7 8 8
9 8 7 7 7 7 8 8 8 8 8 8 7 7 8 8 8 11 11 11 10 10 9 8 6 9 9 9 8 8 8 8 8 8 8 8 6 6 6 6 6 7 8
8 8 8 8 8 8 9 9 8 8 9 9 9 9 9 8 10 10 11 11 11 10 9 8 8 9 9 9 9 9 10 9 8 8 8 8 8 7 6 5 5 5 5
9 9 9 9 9 9 9 9 10 10 10 10 11 12 11 10 10 10 11 11 10 9 8 8 9 9 9 8 8 9 9 8 8 8 9 8 8 7 6 5 5 5 4
10 10 9 11 10 9 10 11 10 11 11 12 13 13 12 11 10 9 9 9 9 7 8 7 8 8 8 8 8 8 8 8 8 8 8 7 7 7 7 7 7 7 6
11 11 11 11 11 11 10 11 11 10 12 13 14 14 13 14 11 13 13 12 9 9 11 9 7 7 7 7 6 7 7 8 9 8 8 9 9 8 8 7 7 7 8
11 11 12 12 12 11 12 10 11 13 13 14 14 14 14 13 13 14 13 13 12 12 8 8 9 9 9 8 8 7 7 7 8 8 8 9 9 9 9 8 8 8 8
12 11 12 12 12 12 12 12 13 12 12 14 14 14 14 14 14 14 13 13 12 11 10 10 11 11 10 9 8 7 8 6 6 8 8 8 8 8 8 8 7 7 8
11 12 11 11 11 11 11 12 13 14 15 14 13 14 14 14 13 14 13 11 7 8 11 12 12 11 11 10 9 8 8 7 7 7 8 8 8 8 7 7 6 7 7
11 11 11 10 10 11 11 12 13 13 14 14 13 13 13 13 13 13 12 10 8 10 13 13 12 12 11 11 9 8 8 8 9 7 7 7 6 7 6 6 5 9 8
11 12 12 11 11 12 12 13 13 13 14 14 14 14 13 12 13 13 12 11 10 11 13 13 13 12 12 11 10 9 8 9 9 9 8 6 6 4 5 4 3 4 3
12 11 13 10 11 11 12 13 13 14 14 15 14 13 14 13 14 14 14 13 12 12 12 13 13 12 11 11 11 11 10 10 10 10 10 8 6 4 3 1 2 3 3
10 9 9 11 11 12 13 13 14 15 15 15 13 12 13 13 14 14 14 14 13 12 12 13 12 11 11 11 11 11 11 11 12 12 11 9 3 3 3 2 2 3 4
9 10 10 11 11 13 12 13 15 15 15 14 13 12 12 12 13 13 14 14 14 12 12 12 12 11 11 11 11 11 12 12 13 13 11 9 3 4 3 4 4 5 5
10 10 11 12 13 12 13 14 15 15 15 13 12 12 12 12 12 13 13 13 13 13 12 12 12 13 12 11 11 12 12 13 13 12 11 8 2 4 3 4 5 6 7
10 10 11 12 12 13 14 15 15 14 13 12 12 12 12 12 12 12 12 12 12 13 13 13 13 13 12 12 13 13 14 14 13 14 10 5 1 2 4 5 6 7 7
10 10 11 11 12 13 14 15 14 13 13 12 12 12 13 13 13 13 13 12 12 12 12 12 12 13 13 12 14 15 14 14 13 14 11 4 1 1 2 4 6 6 6